Time,TemperatureF,DewpointF,PressureIn,WindDirection,WindDirectionDegrees,WindSpeedMPH,WindSpeedGustMPH,Humidity,HourlyPrecipIn,Conditions,Clouds,dailyrainin,SoftwareType,DateUTC
2013-08-29 00:01:00,68.0,64.0,-100.00,ESE,105,1.0,3.0,89,-99.99,,,-99.99,,2013-08-29 05:01:00,
2013-08-29 00:23:00,68.0,64.0,-100.00,ESE,105,1.0,3.0,89,-99.99,,,-99.99,,2013-08-29 05:23:00,
2013-08-29 00:34:00,68.0,64.0,-100.00,ESE,105,1.0,3.0,89,-99.99,,,-99.99,,2013-08-29 05:34:00,
2013-08-29 00:42:00,68.0,64.0,-100.00,ESE,105,1.0,3.0,89,-99.99,,,-99.99,,2013-08-29 05:42:00,
2013-08-29 00:52:00,68.0,64.0,-100.00,ESE,105,1.0,3.0,89,-99.99,,,-99.99,,2013-08-29 05:52:00,
2013-08-29 01:01:00,66.0,63.0,-100.00,ENE,60,0.0,2.0,89,-99.99,,,-99.99,,2013-08-29 06:01:00,
2013-08-29 01:22:00,66.0,63.0,-100.00,ENE,60,0.0,2.0,89,-99.99,,,-99.99,,2013-08-29 06:22:00,
2013-08-29 01:32:00,66.0,63.0,-100.00,ENE,60,0.0,2.0,89,-99.99,,,-99.99,,2013-08-29 06:32:00,
2013-08-29 01:43:00,66.0,63.0,-100.00,ENE,60,0.0,2.0,89,-99.99,,,-99.99,,2013-08-29 06:43:00,
2013-08-29 01:52:00,66.0,63.0,-100.00,ENE,60,0.0,2.0,89,-99.99,,,-99.99,,2013-08-29 06:52:00,
2013-08-29 02:01:00,65.0,62.0,-100.00,WNW,290,0.0,1.0,90,-99.99,,,-99.99,,2013-08-29 07:01:00,
2013-08-29 02:22:00,65.0,62.0,-100.00,WNW,290,0.0,1.0,90,-99.99,,,-99.99,,2013-08-29 07:22:00,
2013-08-29 02:32:00,65.0,62.0,-100.00,WNW,290,0.0,1.0,90,-99.99,,,-99.99,,2013-08-29 07:32:00,
2013-08-29 02:42:00,65.0,62.0,-100.00,WNW,290,0.0,1.0,90,-99.99,,,-99.99,,2013-08-29 07:42:00,
2013-08-29 02:53:00,65.0,62.0,-100.00,WNW,290,0.0,1.0,90,-99.99,,,-99.99,,2013-08-29 07:53:00,
2013-08-29 03:01:00,66.0,63.0,-100.00,SE,130,1.0,2.0,90,-99.99,,,-99.99,,2013-08-29 08:01:00,
2013-08-29 03:22:00,66.0,63.0,-100.00,SE,130,1.0,2.0,90,-99.99,,,-99.99,,2013-08-29 08:22:00,
2013-08-29 03:32:00,66.0,63.0,-100.00,SE,130,1.0,2.0,90,-99.99,,,-99.99,,2013-08-29 08:32:00,
2013-08-29 03:42:00,66.0,63.0,-100.00,SE,130,1.0,2.0,90,-99.99,,,-99.99,,2013-08-29 08:42:00,
2013-08-29 03:52:00,66.0,63.0,-100.00,SE,130,1.0,2.0,90,-99.99,,,-99.99,,2013-08-29 08:52:00,
2013-08-29 04:01:00,64.0,61.0,-100.00,SE,130,1.0,2.0,90,-99.99,,,-99.99,,2013-08-29 09:01:00,
2013-08-29 04:22:00,64.0,61.0,-100.00,SE,130,1.0,2.0,90,-99.99,,,-99.99,,2013-08-29 09:22:00,
2013-08-29 04:34:00,64.0,61.0,-100.00,SE,130,1.0,2.0,90,-99.99,,,-99.99,,2013-08-29 09:34:00,
2013-08-29 04:43:00,64.0,61.0,-100.00,SE,130,1.0,2.0,90,-99.99,,,-99.99,,2013-08-29 09:43:00,
2013-08-29 04:55:00,64.0,61.0,-100.00,SE,130,1.0,2.0,90,-99.99,,,-99.99,,2013-08-29 09:55:00,
2013-08-29 05:02:00,63.0,60.0,-100.00,ENE,70,0.0,1.0,90,-99.99,,,-99.99,,2013-08-29 10:02:00,
2013-08-29 05:24:00,63.0,60.0,-100.00,ENE,70,0.0,1.0,90,-99.99,,,-99.99,,2013-08-29 10:24:00,
2013-08-29 05:33:00,63.0,60.0,-100.00,ENE,70,0.0,1.0,90,-99.99,,,-99.99,,2013-08-29 10:33:00,
2013-08-29 05:43:00,63.0,60.0,-100.00,ENE,70,0.0,1.0,90,-99.99,,,-99.99,,2013-08-29 10:43:00,
2013-08-29 05:53:00,63.0,60.0,-100.00,ENE,70,0.0,1.0,90,-99.99,,,-99.99,,2013-08-29 10:53:00,
2013-08-29 06:02:00,62.0,60.0,-100.00,WNW,285,1.0,3.0,90,-99.99,,,-99.99,,2013-08-29 11:02:00,
2013-08-29 06:22:00,62.0,60.0,-100.00,WNW,285,1.0,3.0,90,-99.99,,,-99.99,,2013-08-29 11:22:00,
2013-08-29 06:33:00,62.0,60.0,-100.00,WNW,285,1.0,3.0,90,-99.99,,,-99.99,,2013-08-29 11:33:00,
2013-08-29 06:42:00,62.0,60.0,-100.00,WNW,285,1.0,3.0,90,-99.99,,,-99.99,,2013-08-29 11:42:00,
2013-08-29 06:52:00,62.0,60.0,-100.00,WNW,285,1.0,3.0,90,-99.99,,,-99.99,,2013-08-29 11:52:00,
2013-08-29 07:02:00,62.0,60.0,-100.00,SW,235,0.0,3.0,90,-99.99,,,-99.99,,2013-08-29 12:02:00,
2013-08-29 07:22:00,62.0,60.0,-100.00,SW,235,0.0,3.0,90,-99.99,,,-99.99,,2013-08-29 12:22:00,
2013-08-29 07:32:00,62.0,60.0,-100.00,SW,235,0.0,3.0,90,-99.99,,,-99.99,,2013-08-29 12:32:00,
2013-08-29 07:42:00,62.0,60.0,-100.00,SW,235,0.0,3.0,90,-99.99,,,-99.99,,2013-08-29 12:42:00,
2013-08-29 07:52:00,62.0,60.0,-100.00,SW,235,0.0,3.0,90,-99.99,,,-99.99,,2013-08-29 12:52:00,
2013-08-29 08:42:00,68.0,65.0,-100.00,SE,140,2.0,4.0,90,-99.99,,,-99.99,,2013-08-29 13:42:00,
2013-08-29 08:52:00,68.0,65.0,-100.00,SE,140,2.0,4.0,90,-99.99,,,-99.99,,2013-08-29 13:52:00,
2013-08-29 09:01:00,73.0,64.0,-100.00,SE,140,2.0,6.0,75,-99.99,,,-99.99,,2013-08-29 14:01:00,
2013-08-29 09:02:00,68.0,65.0,-100.00,SE,140,2.0,4.0,90,-99.99,,,-99.99,,2013-08-29 14:02:00,
2013-08-29 09:22:00,73.0,64.0,-100.00,SE,140,2.0,6.0,75,-99.99,,,-99.99,,2013-08-29 14:22:00,
2013-08-29 09:32:00,73.0,64.0,-100.00,SE,140,2.0,6.0,75,-99.99,,,-99.99,,2013-08-29 14:32:00,
2013-08-29 09:42:00,73.0,64.0,-100.00,SE,140,2.0,6.0,75,-99.99,,,-99.99,,2013-08-29 14:42:00,
2013-08-29 09:52:00,73.0,64.0,-100.00,SE,140,2.0,6.0,75,-99.99,,,-99.99,,2013-08-29 14:52:00,
2013-08-29 10:03:00,76.0,64.0,-100.00,SSE,150,7.0,11.0,68,-99.99,,,-99.99,,2013-08-29 15:03:00,
2013-08-29 10:22:00,76.0,64.0,-100.00,SSE,150,7.0,11.0,68,-99.99,,,-99.99,,2013-08-29 15:22:00,
2013-08-29 10:33:00,76.0,64.0,-100.00,SSE,150,7.0,11.0,68,-99.99,,,-99.99,,2013-08-29 15:33:00,
2013-08-29 10:43:00,76.0,64.0,-100.00,SSE,150,7.0,11.0,68,-99.99,,,-99.99,,2013-08-29 15:43:00,
2013-08-29 10:53:00,76.0,64.0,-100.00,SSE,150,7.0,11.0,68,-99.99,,,-99.99,,2013-08-29 15:53:00,
2013-08-29 12:01:00,81.0,63.0,-100.00,SE,145,4.0,10.0,54,-99.99,,,-99.99,,2013-08-29 17:01:00,
2013-08-29 12:23:00,81.0,63.0,-100.00,SE,145,4.0,10.0,54,-99.99,,,-99.99,,2013-08-29 17:23:00,
2013-08-29 12:34:00,81.0,63.0,-100.00,SE,145,4.0,10.0,54,-99.99,,,-99.99,,2013-08-29 17:34:00,
2013-08-29 12:44:00,81.0,63.0,-100.00,SE,145,4.0,10.0,54,-99.99,,,-99.99,,2013-08-29 17:44:00,
2013-08-29 12:53:00,81.0,63.0,-100.00,SE,145,4.0,10.0,54,-99.99,,,-99.99,,2013-08-29 17:53:00,
2013-08-29 22:00:00,69.0,66.0,-100.00,SE,130,2.0,3.0,88,-99.99,,,-99.99,,2013-08-30 03:00:00,
2013-08-29 22:55:00,69.0,66.0,-100.00,SE,130,2.0,3.0,88,-99.99,,,-99.99,,2013-08-30 03:55:00,
2013-08-29 23:01:00,68.0,65.0,-100.00,SE,140,2.0,4.0,89,-99.99,,,-99.99,,2013-08-30 04:01:00,
2013-08-29 23:44:00,68.0,65.0,-100.00,SE,140,2.0,4.0,89,-99.99,,,-99.99,,2013-08-30 04:44:00,
2013-08-29 23:54:00,68.0,65.0,-100.00,SE,140,2.0,4.0,89,-99.99,,,-99.99,,2013-08-30 04:54:00,